ARG1554 SABE-SANU

Flight info

Callsign ARG1554
Flight time 1h 35m
Altitude 38000
Route ATOVO4B ATOVO UW5 ROS UT653 PAMAL DCT ISUSA ISUSA2A
Aircraft E190/M-SDE3GILORVW/S

Departure

Time 2026-04-16 21:30
Airport Aeroparque Jorge Newbery (SABE)

Arrival

Time 2026-04-16 23:05
Airport Domingo Faustino Sarmiento Airport (SANU)
Time Latitude Longitude Altitude Speed Heading
2026-04-16 20:54 -34.55810 -58.41450 24 ft 0 kts 207°
2026-04-16 21:19 -34.55806 -58.41448 24 ft 3 kts 208°
2026-04-16 21:19 -34.55784 -58.41430 24 ft 4 kts 230°
2026-04-16 21:19 -34.55773 -58.41404 27 ft 4 kts 276°
2026-04-16 21:19 -34.55775 -58.41389 28 ft 0 kts 297°
2026-04-16 21:22 -34.55770 -58.41400 27 ft 4 kts 300°
2026-04-16 21:23 -34.55747 -58.41448 27 ft 9 kts 299°
2026-04-16 21:23 -34.55722 -58.41513 24 ft 3 kts 284°
2026-04-16 21:23 -34.55730 -58.41552 25 ft 7 kts 232°
2026-04-16 21:23 -34.55778 -58.41599 24 ft 11 kts 234°
2026-04-16 21:24 -34.55770 -58.41671 25 ft 8 kts 296°
2026-04-16 21:24 -34.55737 -58.41751 25 ft 13 kts 300°
2026-04-16 21:24 -34.55689 -58.41842 27 ft 11 kts 304°
2026-04-16 21:24 -34.55636 -58.41938 25 ft 16 kts 303°
2026-04-16 21:25 -34.55586 -58.42025 24 ft 14 kts 304°
2026-04-16 21:25 -34.55531 -58.42115 27 ft 14 kts 306°
2026-04-16 21:25 -34.55491 -58.42182 25 ft 10 kts 308°
2026-04-16 21:25 -34.55437 -58.42265 26 ft 15 kts 307°
2026-04-16 21:26 -34.55383 -58.42352 26 ft 12 kts 303°
2026-04-16 21:26 -34.55377 -58.42366 25 ft 0 kts 296°
2026-04-16 21:28 -34.55374 -58.42376 24 ft 5 kts 290°
2026-04-16 21:29 -34.55361 -58.42448 24 ft 6 kts 277°
2026-04-16 21:29 -34.55392 -58.42506 24 ft 11 kts 206°
2026-04-16 21:29 -34.55415 -58.42492 26 ft 1 kts 124°
2026-04-16 21:30 -34.55540 -58.42262 26 ft 70 kts 123°
2026-04-16 21:30 -34.55957 -58.41524 25 ft 140 kts 125°
2026-04-16 21:30 -34.56558 -58.40407 380 ft 170 kts 123°
2026-04-16 21:30 -34.57168 -58.39217 931 ft 154 kts 127°
2026-04-16 21:31 -34.57623 -58.38062 918 ft 150 kts 104°
2026-04-16 21:31 -34.57474 -58.36807 1029 ft 163 kts 60°
2026-04-16 21:31 -34.56593 -58.35897 1515 ft 176 kts 20°
2026-04-16 21:31 -34.55365 -58.35897 1913 ft 191 kts 337°
2026-04-16 21:32 -34.54101 -58.36778 1893 ft 219 kts 323°
2026-04-16 21:32 -34.52839 -58.37825 1923 ft 221 kts 322°
2026-04-16 21:32 -34.51519 -58.38897 2503 ft 226 kts 323°
2026-04-16 21:32 -34.50215 -58.39919 3387 ft 226 kts 323°
2026-04-16 21:33 -34.48753 -58.40890 3737 ft 252 kts 330°
2026-04-16 21:33 -34.47144 -58.41803 4510 ft 261 kts 332°
2026-04-16 21:33 -34.45386 -58.42663 5025 ft 283 kts 337°
2026-04-16 21:33 -34.43483 -58.43468 5732 ft 293 kts 338°
2026-04-16 21:34 -34.41547 -58.44284 6605 ft 297 kts 338°
2026-04-16 21:34 -34.39586 -58.45106 7443 ft 299 kts 338°
2026-04-16 21:34 -34.37615 -58.45935 8296 ft 301 kts 338°
2026-04-16 21:34 -34.35622 -58.46772 9114 ft 304 kts 338°
2026-04-16 21:35 -34.33620 -58.47609 9911 ft 306 kts 338°
2026-04-16 21:35 -34.31566 -58.48469 10366 ft 321 kts 338°
2026-04-16 21:35 -34.29401 -58.49375 10786 ft 334 kts 338°
2026-04-16 21:35 -34.27324 -58.50595 11490 ft 332 kts 319°
2026-04-16 21:36 -34.25831 -58.52668 12240 ft 326 kts 294°
2026-04-16 21:36 -34.25217 -58.55262 12990 ft 321 kts 269°
2026-04-16 21:36 -34.25594 -58.57894 13720 ft 319 kts 245°
2026-04-16 21:36 -34.26688 -58.60230 14384 ft 321 kts 237°
2026-04-16 21:37 -34.27830 -58.62562 15027 ft 325 kts 239°
2026-04-16 21:37 -34.28872 -58.65006 15665 ft 329 kts 245°
2026-04-16 21:37 -34.29603 -58.67637 16244 ft 334 kts 259°
2026-04-16 21:37 -34.29445 -58.70453 16821 ft 342 kts 283°
2026-04-16 21:38 -34.28819 -58.73227 17418 ft 344 kts 282°
2026-04-16 21:38 -34.28231 -58.76048 18003 ft 347 kts 283°
2026-04-16 21:38 -34.27495 -58.78840 18521 ft 351 kts 287°
2026-04-16 21:38 -34.26521 -58.81562 19044 ft 355 kts 296°
2026-04-16 21:39 -34.25338 -58.84195 19583 ft 358 kts 297°
2026-04-16 21:39 -34.24095 -58.86817 20143 ft 361 kts 298°
2026-04-16 21:39 -34.22776 -58.89408 20681 ft 364 kts 300°
2026-04-16 21:39 -34.21397 -58.91991 21211 ft 367 kts 300°
2026-04-16 21:40 -34.19992 -58.94592 21714 ft 370 kts 303°
2026-04-16 21:40 -34.18396 -58.97046 22229 ft 373 kts 306°
2026-04-16 21:40 -34.16766 -58.99496 22707 ft 376 kts 307°
2026-04-16 21:40 -34.15098 -59.01947 23160 ft 379 kts 307°
2026-04-16 21:41 -34.13409 -59.04409 23516 ft 383 kts 307°
2026-04-16 21:41 -34.11708 -59.06892 23871 ft 385 kts 307°
2026-04-16 21:41 -34.09990 -59.09391 24241 ft 387 kts 306°
2026-04-16 21:41 -34.08260 -59.11890 24600 ft 390 kts 308°
2026-04-16 21:42 -34.06558 -59.14352 24942 ft 391 kts 305°
2026-04-16 21:42 -34.04828 -59.16922 25301 ft 394 kts 307°
2026-04-16 21:42 -34.03069 -59.19469 25665 ft 395 kts 307°
2026-04-16 21:42 -34.01300 -59.22014 26016 ft 397 kts 307°
2026-04-16 21:43 -33.99521 -59.24575 26365 ft 399 kts 307°
2026-04-16 21:43 -33.97735 -59.27145 26704 ft 402 kts 307°
2026-04-16 21:43 -33.95934 -59.29732 27042 ft 404 kts 307°
2026-04-16 21:43 -33.94127 -59.32330 27370 ft 406 kts 307°
2026-04-16 21:44 -33.92306 -59.34944 27667 ft 409 kts 307°
2026-04-16 21:44 -33.90476 -59.37573 27997 ft 411 kts 307°
2026-04-16 21:44 -33.88637 -59.40213 28311 ft 413 kts 307°
2026-04-16 21:44 -33.86790 -59.42864 28609 ft 414 kts 307°
2026-04-16 21:45 -33.84929 -59.45528 28982 ft 413 kts 307°
2026-04-16 21:45 -33.83110 -59.48134 29511 ft 405 kts 307°
2026-04-16 21:45 -33.81327 -59.50685 29344 ft 395 kts 307°
2026-04-16 21:45 -33.79532 -59.53256 29251 ft 408 kts 307°
2026-04-16 21:46 -33.77680 -59.55896 29210 ft 418 kts 307°
2026-04-16 21:46 -33.73939 -59.61232 29142 ft 418 kts 307°
2026-04-16 21:46 -33.72694 -59.63005 29311 ft 419 kts 307°
2026-04-16 21:47 -33.70169 -59.66605 29675 ft 423 kts 307°
2026-04-16 21:47 -33.68915 -59.68392 29847 ft 424 kts 307°
2026-04-16 21:47 -33.66995 -59.71118 29881 ft 432 kts 307°
2026-04-16 21:47 -33.65051 -59.73886 30142 ft 432 kts 307°
2026-04-16 21:48 -33.63112 -59.76637 30460 ft 432 kts 307°
2026-04-16 21:48 -33.61170 -59.79375 30772 ft 431 kts 307°
2026-04-16 21:48 -33.59241 -59.82119 31088 ft 430 kts 307°
2026-04-16 21:48 -33.57309 -59.84854 31401 ft 429 kts 307°
2026-04-16 21:49 -33.55380 -59.87580 31711 ft 428 kts 307°
2026-04-16 21:49 -33.53446 -59.90288 32018 ft 428 kts 307°
2026-04-16 21:49 -33.51525 -59.93011 32252 ft 428 kts 307°
2026-04-16 21:49 -33.49603 -59.95734 32554 ft 427 kts 307°
2026-04-16 21:50 -33.47684 -59.98451 32842 ft 427 kts 307°
2026-04-16 21:50 -33.45760 -60.01158 33121 ft 426 kts 307°
2026-04-16 21:50 -33.43841 -60.03856 33400 ft 425 kts 307°
2026-04-16 21:50 -33.41923 -60.06553 33671 ft 425 kts 307°
2026-04-16 21:51 -33.40006 -60.09245 33915 ft 424 kts 307°
2026-04-16 21:51 -33.38092 -60.11932 34127 ft 424 kts 307°
2026-04-16 21:51 -33.36187 -60.14604 34387 ft 422 kts 307°
2026-04-16 21:51 -33.34285 -60.17271 34607 ft 421 kts 307°
2026-04-16 21:52 -33.32384 -60.19934 34739 ft 423 kts 307°
2026-04-16 21:52 -33.30470 -60.22616 34917 ft 423 kts 307°
2026-04-16 21:52 -33.28561 -60.25288 35133 ft 422 kts 307°
2026-04-16 21:52 -33.26650 -60.27959 35343 ft 422 kts 307°
2026-04-16 21:53 -33.24749 -60.30617 35557 ft 421 kts 307°
2026-04-16 21:53 -33.22871 -60.33240 35757 ft 420 kts 307°
2026-04-16 21:53 -33.20969 -60.35891 35948 ft 420 kts 307°
2026-04-16 21:53 -33.19076 -60.38531 36207 ft 418 kts 307°
2026-04-16 21:54 -33.17187 -60.41164 36403 ft 417 kts 307°
2026-04-16 21:54 -33.15304 -60.43787 36590 ft 416 kts 307°
2026-04-16 21:54 -33.13417 -60.46410 36774 ft 416 kts 307°
2026-04-16 21:55 -33.09632 -60.51672 37023 ft 418 kts 307°
2026-04-16 21:55 -33.07742 -60.54297 37207 ft 417 kts 307°
2026-04-16 21:55 -33.05851 -60.56918 37377 ft 417 kts 307°
2026-04-16 21:55 -33.03961 -60.59539 37566 ft 416 kts 307°
2026-04-16 21:56 -33.02080 -60.62144 37725 ft 414 kts 307°
2026-04-16 21:56 -32.98370 -60.67280 37819 ft 413 kts 307°
2026-04-16 21:57 -32.94567 -60.72533 37832 ft 419 kts 307°
2026-04-16 21:57 -32.91171 -60.78067 37839 ft 411 kts 292°
2026-04-16 21:58 -32.89569 -60.84465 37843 ft 406 kts 278°
2026-04-16 21:58 -32.88521 -60.91067 37844 ft 406 kts 278°
2026-04-16 21:59 -32.87501 -60.97672 37826 ft 406 kts 278°
2026-04-16 21:59 -32.86479 -61.04283 37826 ft 406 kts 278°
2026-04-16 22:00 -32.85458 -61.10860 37839 ft 405 kts 277°
2026-04-16 22:00 -32.84432 -61.17439 37835 ft 404 kts 277°
2026-04-16 22:01 -32.83404 -61.24014 37848 ft 405 kts 277°
2026-04-16 22:01 -32.82370 -61.30596 37849 ft 405 kts 277°
2026-04-16 22:02 -32.81334 -61.37168 37854 ft 404 kts 277°
2026-04-16 22:02 -32.80298 -61.43734 37857 ft 404 kts 277°
2026-04-16 22:03 -32.79257 -61.50291 37840 ft 402 kts 277°
2026-04-16 22:03 -32.78216 -61.56828 37852 ft 403 kts 277°
2026-04-16 22:04 -32.77173 -61.63361 37857 ft 402 kts 277°
2026-04-16 22:04 -32.76125 -61.69901 37863 ft 403 kts 277°
2026-04-16 22:05 -32.75072 -61.76440 37861 ft 403 kts 277°
2026-04-16 22:05 -32.74018 -61.82970 37849 ft 403 kts 277°
2026-04-16 22:06 -32.72959 -61.89506 37864 ft 403 kts 277°
2026-04-16 22:06 -32.71365 -61.99301 37862 ft 403 kts 277°
2026-04-16 22:07 -32.70306 -62.05781 37863 ft 403 kts 277°
2026-04-16 22:07 -32.69257 -62.12288 37866 ft 400 kts 276°
2026-04-16 22:08 -32.68131 -62.18795 37860 ft 402 kts 278°
2026-04-16 22:08 -32.66961 -62.25279 37864 ft 402 kts 278°
2026-04-16 22:09 -32.65787 -62.31762 37864 ft 402 kts 278°
2026-04-16 22:09 -32.64611 -62.38244 37873 ft 402 kts 278°
2026-04-16 22:10 -32.63431 -62.44729 37866 ft 402 kts 278°
2026-04-16 22:10 -32.62247 -62.51213 37874 ft 402 kts 278°
2026-04-16 22:11 -32.61063 -62.57683 37873 ft 401 kts 278°
2026-04-16 22:11 -32.59874 -62.64153 37866 ft 401 kts 278°
2026-04-16 22:12 -32.58688 -62.70587 37877 ft 400 kts 278°
2026-04-16 22:12 -32.57503 -62.76984 37869 ft 400 kts 278°
2026-04-16 22:13 -32.56313 -62.83422 37868 ft 400 kts 278°
2026-04-16 22:13 -32.55119 -62.89843 37880 ft 399 kts 278°
2026-04-16 22:14 -32.53923 -62.96259 37876 ft 399 kts 278°
2026-04-16 22:14 -32.52720 -63.02683 37877 ft 399 kts 278°
2026-04-16 22:15 -32.51517 -63.09097 37878 ft 399 kts 278°
2026-04-16 22:15 -32.50310 -63.15511 37879 ft 397 kts 278°
2026-04-16 22:16 -32.49105 -63.21894 37888 ft 398 kts 278°
2026-04-16 22:16 -32.47901 -63.28263 37894 ft 396 kts 278°
2026-04-16 22:17 -32.46693 -63.34625 37874 ft 396 kts 278°
2026-04-16 22:17 -32.45482 -63.40984 37879 ft 396 kts 278°
2026-04-16 22:18 -32.44273 -63.47315 37892 ft 393 kts 278°
2026-04-16 22:18 -32.43072 -63.53591 37877 ft 393 kts 278°
2026-04-16 22:19 -32.41860 -63.59900 37888 ft 393 kts 278°
2026-04-16 22:19 -32.40644 -63.66211 37893 ft 393 kts 278°
2026-04-16 22:20 -32.39424 -63.72519 37890 ft 393 kts 278°
2026-04-16 22:20 -32.38208 -63.78801 37894 ft 391 kts 278°
2026-04-16 22:21 -32.36989 -63.85075 37894 ft 391 kts 278°
2026-04-16 22:21 -32.35770 -63.91334 37891 ft 391 kts 278°
2026-04-16 22:22 -32.34545 -63.97601 37897 ft 391 kts 278°
2026-04-16 22:22 -32.33316 -64.03869 37895 ft 391 kts 278°
2026-04-16 22:23 -32.32087 -64.10124 37901 ft 391 kts 278°
2026-04-16 22:23 -32.30854 -64.16382 37898 ft 391 kts 278°
2026-04-16 22:24 -32.29620 -64.22633 37904 ft 391 kts 278°
2026-04-16 22:24 -32.28380 -64.28888 37900 ft 391 kts 278°
2026-04-16 22:25 -32.27146 -64.35099 37905 ft 390 kts 278°
2026-04-16 22:25 -32.25910 -64.41303 37904 ft 387 kts 279°
2026-04-16 22:26 -32.24669 -64.47517 37913 ft 389 kts 279°
2026-04-16 22:26 -32.23425 -64.53729 37921 ft 388 kts 279°
2026-04-16 22:27 -32.22178 -64.59936 37914 ft 388 kts 279°
2026-04-16 22:27 -32.20930 -64.66133 37933 ft 389 kts 279°
2026-04-16 22:28 -32.19676 -64.72339 37919 ft 388 kts 279°
2026-04-16 22:28 -32.18419 -64.78545 37920 ft 388 kts 279°
2026-04-16 22:29 -32.17160 -64.84747 37927 ft 389 kts 279°
2026-04-16 22:29 -32.15897 -64.90951 37918 ft 387 kts 279°
2026-04-16 22:30 -32.14635 -64.97139 37947 ft 389 kts 279°
2026-04-16 22:30 -32.13372 -65.03307 37914 ft 385 kts 279°
2026-04-16 22:31 -32.12108 -65.09464 37913 ft 386 kts 280°
2026-04-16 22:31 -32.10844 -65.15610 37900 ft 386 kts 280°
2026-04-16 22:32 -32.09574 -65.21765 37890 ft 386 kts 280°
2026-04-16 22:32 -32.08302 -65.27916 37876 ft 386 kts 280°
2026-04-16 22:33 -32.07028 -65.34059 37873 ft 385 kts 280°
2026-04-16 22:33 -32.05758 -65.40167 37859 ft 386 kts 280°
2026-04-16 22:34 -32.04478 -65.46310 37863 ft 386 kts 280°
2026-04-16 22:34 -32.03195 -65.52457 37848 ft 386 kts 280°
2026-04-16 22:35 -32.01907 -65.58603 37851 ft 386 kts 280°
2026-04-16 22:35 -32.00839 -65.63705 37852 ft 385 kts 280°
2026-04-16 22:36 -31.99549 -65.69829 37847 ft 385 kts 280°
2026-04-16 22:36 -31.98261 -65.75955 37846 ft 385 kts 280°
2026-04-16 22:37 -31.96967 -65.82077 37837 ft 385 kts 280°
2026-04-16 22:37 -31.95670 -65.88201 37843 ft 385 kts 280°
2026-04-16 22:38 -31.94372 -65.94316 37837 ft 384 kts 281°
2026-04-16 22:38 -31.93074 -66.00409 37837 ft 384 kts 281°
2026-04-16 22:39 -31.91774 -66.06497 37836 ft 384 kts 281°
2026-04-16 22:39 -31.90468 -66.12592 37828 ft 384 kts 281°
2026-04-16 22:40 -31.89161 -66.18676 37834 ft 384 kts 281°
2026-04-16 22:40 -31.87853 -66.24763 37830 ft 384 kts 281°
2026-04-16 22:41 -31.86543 -66.30839 37835 ft 383 kts 281°
2026-04-16 22:41 -31.85225 -66.36922 37820 ft 383 kts 281°
2026-04-16 22:42 -31.83908 -66.42995 37827 ft 383 kts 281°
2026-04-16 22:42 -31.82589 -66.49062 37822 ft 383 kts 281°
2026-04-16 22:43 -31.81260 -66.55136 37814 ft 383 kts 281°
2026-04-16 22:43 -31.80599 -66.58169 37440 ft 384 kts 281°
2026-04-16 22:43 -31.79939 -66.61211 36953 ft 383 kts 281°
2026-04-16 22:44 -31.79280 -66.64238 36484 ft 382 kts 281°
2026-04-16 22:44 -31.78621 -66.67267 36016 ft 383 kts 281°
2026-04-16 22:44 -31.77995 -66.70312 35597 ft 385 kts 280°
2026-04-16 22:44 -31.77516 -66.73404 35177 ft 385 kts 276°
2026-04-16 22:45 -31.77123 -66.76516 34749 ft 386 kts 276°
2026-04-16 22:45 -31.76747 -66.79643 34337 ft 386 kts 275°
2026-04-16 22:45 -31.76373 -66.82771 33930 ft 387 kts 275°
2026-04-16 22:45 -31.76001 -66.85907 33483 ft 388 kts 275°
2026-04-16 22:46 -31.75632 -66.89013 33021 ft 390 kts 275°
2026-04-16 22:46 -31.75258 -66.92168 32566 ft 389 kts 276°
2026-04-16 22:46 -31.74874 -66.95318 32091 ft 391 kts 276°
2026-04-16 22:46 -31.74501 -66.98492 31602 ft 393 kts 275°
2026-04-16 22:47 -31.74112 -67.01681 31118 ft 395 kts 276°
2026-04-16 22:47 -31.73724 -67.04878 30647 ft 397 kts 275°
2026-04-16 22:47 -31.73339 -67.08100 30182 ft 399 kts 275°
2026-04-16 22:47 -31.72956 -67.11339 29695 ft 401 kts 275°
2026-04-16 22:48 -31.72564 -67.14577 29161 ft 400 kts 276°
2026-04-16 22:48 -31.72171 -67.17799 28617 ft 396 kts 276°
2026-04-16 22:48 -31.71781 -67.20985 28089 ft 393 kts 276°
2026-04-16 22:48 -31.71395 -67.24144 27566 ft 390 kts 276°
2026-04-16 22:49 -31.71009 -67.27278 27064 ft 387 kts 276°
2026-04-16 22:49 -31.70623 -67.30397 26566 ft 384 kts 276°
2026-04-16 22:49 -31.70242 -67.33490 26079 ft 381 kts 275°
2026-04-16 22:49 -31.69864 -67.36564 25599 ft 379 kts 275°
2026-04-16 22:50 -31.69492 -67.39613 25126 ft 376 kts 275°
2026-04-16 22:50 -31.69117 -67.42640 24667 ft 374 kts 275°
2026-04-16 22:50 -31.68742 -67.45647 24203 ft 371 kts 275°
2026-04-16 22:50 -31.68374 -67.48635 23750 ft 369 kts 275°
2026-04-16 22:51 -31.68004 -67.51606 23295 ft 366 kts 275°
2026-04-16 22:51 -31.67637 -67.54555 22773 ft 364 kts 275°
2026-04-16 22:51 -31.67279 -67.57455 22257 ft 355 kts 275°
2026-04-16 22:51 -31.66925 -67.60304 21737 ft 350 kts 275°
2026-04-16 22:52 -31.66571 -67.63128 21237 ft 350 kts 275°
2026-04-16 22:52 -31.66209 -67.65945 20740 ft 348 kts 276°
2026-04-16 22:52 -31.65864 -67.68749 20260 ft 346 kts 276°
2026-04-16 22:52 -31.65511 -67.71529 19784 ft 343 kts 276°
2026-04-16 22:53 -31.65162 -67.74293 19227 ft 342 kts 276°
2026-04-16 22:53 -31.64812 -67.77048 18678 ft 339 kts 276°
2026-04-16 22:53 -31.64471 -67.79773 18137 ft 336 kts 276°
2026-04-16 22:53 -31.64156 -67.82484 17522 ft 334 kts 277°
2026-04-16 22:54 -31.63749 -67.85175 16911 ft 334 kts 278°
2026-04-16 22:54 -31.63331 -67.87862 16305 ft 335 kts 278°
2026-04-16 22:54 -31.62926 -67.90547 15710 ft 333 kts 278°
2026-04-16 22:54 -31.62511 -67.93188 15116 ft 333 kts 279°
2026-04-16 22:55 -31.62106 -67.95774 14564 ft 331 kts 279°
2026-04-16 22:55 -31.61698 -67.98427 13992 ft 332 kts 279°
2026-04-16 22:55 -31.61279 -68.01083 13414 ft 331 kts 279°
2026-04-16 22:55 -31.60861 -68.03737 12813 ft 330 kts 280°
2026-04-16 22:56 -31.60448 -68.06372 12216 ft 328 kts 279°
2026-04-16 22:56 -31.59812 -68.08935 11534 ft 329 kts 295°
2026-04-16 22:56 -31.58611 -68.11220 10883 ft 329 kts 305°
2026-04-16 22:56 -31.57211 -68.13299 10227 ft 319 kts 309°
2026-04-16 22:57 -31.55759 -68.15221 9565 ft 310 kts 312°
2026-04-16 22:57 -31.54267 -68.17003 8843 ft 303 kts 318°
2026-04-16 22:57 -31.52672 -68.18585 8149 ft 298 kts 321°
2026-04-16 22:57 -31.51094 -68.20127 7468 ft 293 kts 321°
2026-04-16 22:58 -31.49537 -68.21614 7003 ft 285 kts 320°
2026-04-16 22:58 -31.48034 -68.23065 6530 ft 277 kts 321°
2026-04-16 22:58 -31.46566 -68.24475 6090 ft 266 kts 321°
2026-04-16 22:58 -31.45167 -68.25738 5913 ft 244 kts 323°
2026-04-16 22:59 -31.43812 -68.26927 5763 ft 243 kts 322°
2026-04-16 22:59 -31.42489 -68.28175 5425 ft 245 kts 319°
2026-04-16 22:59 -31.41247 -68.29510 5320 ft 240 kts 315°
2026-04-16 22:59 -31.40238 -68.31017 5280 ft 229 kts 297°
2026-04-16 23:00 -31.39671 -68.32703 5127 ft 217 kts 286°
2026-04-16 23:00 -31.39348 -68.34374 5023 ft 206 kts 279°
2026-04-16 23:00 -31.39177 -68.36004 4969 ft 198 kts 272°
2026-04-16 23:00 -31.39166 -68.37617 4976 ft 199 kts 268°
2026-04-16 23:01 -31.39197 -68.39249 4996 ft 200 kts 267°
2026-04-16 23:01 -31.39437 -68.40815 4930 ft 189 kts 243°
2026-04-16 23:01 -31.40326 -68.41814 4880 ft 177 kts 200°
2026-04-16 23:01 -31.41519 -68.42081 4761 ft 176 kts 182°
2026-04-16 23:02 -31.42730 -68.42088 4692 ft 172 kts 176°
2026-04-16 23:02 -31.43870 -68.42011 4677 ft 159 kts 176°
2026-04-16 23:02 -31.44989 -68.41953 4676 ft 161 kts 177°
2026-04-16 23:02 -31.46127 -68.41934 4500 ft 164 kts 179°
2026-04-16 23:03 -31.47253 -68.41925 4297 ft 155 kts 179°
2026-04-16 23:03 -31.48280 -68.41923 4147 ft 142 kts 179°
2026-04-16 23:03 -31.49295 -68.41915 3906 ft 148 kts 178°
2026-04-16 23:03 -31.50328 -68.41888 3516 ft 150 kts 179°
2026-04-16 23:04 -31.51355 -68.41889 3199 ft 143 kts 179°
2026-04-16 23:04 -31.52320 -68.41883 2929 ft 134 kts 179°
2026-04-16 23:04 -31.53259 -68.41867 2549 ft 135 kts 179°
2026-04-16 23:04 -31.54183 -68.41869 2319 ft 134 kts 176°
2026-04-16 23:05 -31.55105 -68.41845 2157 ft 128 kts 178°
2026-04-16 23:05 -31.55983 -68.41838 2026 ft 125 kts 178°
2026-04-16 23:05 -31.56802 -68.41833 1954 ft 105 kts 181°
2026-04-16 23:05 -31.57359 -68.41822 1951 ft 45 kts 181°
2026-04-16 23:06 -31.57497 -68.41831 1953 ft 9 kts 207°
2026-04-16 23:06 -31.57503 -68.41897 1953 ft 9 kts 298°
2026-04-16 23:06 -31.57471 -68.41932 1953 ft 7 kts 317°
2026-04-16 23:06 -31.57432 -68.41973 1953 ft 8 kts 317°
2026-04-16 23:07 -31.57387 -68.42026 1953 ft 10 kts 314°
2026-04-16 23:07 -31.57330 -68.42095 1953 ft 13 kts 316°
2026-04-16 23:07 -31.57247 -68.42135 1953 ft 14 kts 356°
2026-04-16 23:07 -31.57200 -68.42135 1953 ft 1 kts
2026-04-16 23:08 -31.57184 -68.42136 1953 ft 4 kts 356°
2026-04-16 23:08 -31.57168 -68.42159 1953 ft 4 kts 281°
2026-04-16 23:08 -31.57167 -68.42190 1953 ft 4 kts 271°
2026-04-16 23:08 -31.57167 -68.42206 1953 ft 0 kts 270°